Year,Month,Day,Hour,Minute,Value (Times are PST for insolation in W/m^2)
2018,06,25,00,00,0.00
2018,06,25,00,01,0.00
2018,06,25,00,02,0.00
2018,06,25,00,03,0.00
2018,06,25,00,04,0.00
2018,06,25,00,05,0.00
2018,06,25,00,06,0.00
2018,06,25,00,07,0.00
2018,06,25,00,08,0.00
2018,06,25,00,09,0.00
2018,06,25,00,10,0.00
2018,06,25,00,11,0.00
2018,06,25,00,12,0.00
2018,06,25,00,13,0.00
2018,06,25,00,14,0.00
2018,06,25,00,15,0.00
2018,06,25,00,16,0.00
2018,06,25,00,17,0.00
2018,06,25,00,18,0.00
2018,06,25,00,19,0.00
2018,06,25,00,20,0.00
2018,06,25,00,21,0.00
2018,06,25,00,22,0.00
2018,06,25,00,23,0.00
2018,06,25,00,24,0.00
2018,06,25,00,25,0.00
2018,06,25,00,26,0.00
2018,06,25,00,27,0.00
2018,06,25,00,28,0.00
2018,06,25,00,29,0.00
2018,06,25,00,30,0.00
2018,06,25,00,31,0.00
2018,06,25,00,32,0.00
2018,06,25,00,33,0.00
2018,06,25,00,34,0.00
2018,06,25,00,35,0.00
2018,06,25,00,36,0.00
2018,06,25,00,37,0.00
2018,06,25,00,38,0.00
2018,06,25,00,39,0.00
2018,06,25,00,40,0.00
2018,06,25,00,41,0.00
2018,06,25,00,42,0.00
2018,06,25,00,43,0.00
2018,06,25,00,44,0.00
2018,06,25,00,45,0.00
2018,06,25,00,46,0.00
2018,06,25,00,47,0.00
2018,06,25,00,48,0.00
2018,06,25,00,49,0.00
2018,06,25,00,50,0.00
2018,06,25,00,51,0.00
2018,06,25,00,52,0.00
2018,06,25,00,53,0.00
2018,06,25,00,54,0.00
2018,06,25,00,55,0.00
2018,06,25,00,56,0.00
2018,06,25,00,57,0.00
2018,06,25,00,58,0.00
2018,06,25,00,59,0.00
2018,06,25,01,00,0.00
2018,06,25,01,01,0.00
2018,06,25,01,02,0.00
2018,06,25,01,03,0.00
2018,06,25,01,04,0.00
2018,06,25,01,05,0.00
2018,06,25,01,06,0.00
2018,06,25,01,07,0.00
2018,06,25,01,08,0.00
2018,06,25,01,09,0.00
2018,06,25,01,10,0.00
2018,06,25,01,11,0.00
2018,06,25,01,12,0.00
2018,06,25,01,13,0.00
2018,06,25,01,14,0.00
2018,06,25,01,15,0.00
2018,06,25,01,16,0.00
2018,06,25,01,17,0.00
2018,06,25,01,18,0.00
2018,06,25,01,19,0.00
2018,06,25,01,20,0.00
2018,06,25,01,21,0.00
2018,06,25,01,22,0.00
2018,06,25,01,23,0.00
2018,06,25,01,24,0.00
2018,06,25,01,25,0.00
2018,06,25,01,26,0.00
2018,06,25,01,27,0.00
2018,06,25,01,28,0.00
2018,06,25,01,29,0.00
2018,06,25,01,30,0.00
2018,06,25,01,31,0.00
2018,06,25,01,32,0.00
2018,06,25,01,33,0.00
2018,06,25,01,34,0.00
2018,06,25,01,35,0.00
2018,06,25,01,36,0.00
2018,06,25,01,37,0.00
2018,06,25,01,38,0.00
2018,06,25,01,39,0.00
2018,06,25,01,40,0.00
2018,06,25,01,41,0.00
2018,06,25,01,42,0.00
2018,06,25,01,43,0.00
2018,06,25,01,44,0.00
2018,06,25,01,45,0.00
2018,06,25,01,46,0.00
2018,06,25,01,47,0.00
2018,06,25,01,48,0.00
2018,06,25,01,49,0.00
2018,06,25,01,50,0.00
2018,06,25,01,51,0.00
2018,06,25,01,52,0.00
2018,06,25,01,53,0.00
2018,06,25,01,54,0.00
2018,06,25,01,55,0.00
2018,06,25,01,56,0.00
2018,06,25,01,57,0.00
2018,06,25,01,58,0.00
2018,06,25,01,59,0.00
2018,06,25,02,00,0.00
2018,06,25,02,01,0.00
2018,06,25,02,02,0.00
2018,06,25,02,03,0.00
2018,06,25,02,04,0.00
2018,06,25,02,05,0.00
2018,06,25,02,06,0.00
2018,06,25,02,07,0.00
2018,06,25,02,08,0.00
2018,06,25,02,09,0.00
2018,06,25,02,10,0.00
2018,06,25,02,11,0.00
2018,06,25,02,12,0.00
2018,06,25,02,13,0.00
2018,06,25,02,14,0.00
2018,06,25,02,15,0.00
2018,06,25,02,16,0.00
2018,06,25,02,17,0.00
2018,06,25,02,18,0.00
2018,06,25,02,19,0.00
2018,06,25,02,20,0.00
2018,06,25,02,21,0.00
2018,06,25,02,22,0.00
2018,06,25,02,23,0.00
2018,06,25,02,24,0.00
2018,06,25,02,25,0.00
2018,06,25,02,26,0.00
2018,06,25,02,27,0.00
2018,06,25,02,28,0.00
2018,06,25,02,29,0.00
2018,06,25,02,30,0.00
2018,06,25,02,31,0.00
2018,06,25,02,32,0.00
2018,06,25,02,33,0.00
2018,06,25,02,34,0.00
2018,06,25,02,35,0.00
2018,06,25,02,36,0.00
2018,06,25,02,37,0.00
2018,06,25,02,38,0.00
2018,06,25,02,39,0.00
2018,06,25,02,40,0.00
2018,06,25,02,41,0.00
2018,06,25,02,42,0.00
2018,06,25,02,43,0.00
2018,06,25,02,44,0.00
2018,06,25,02,45,0.00
2018,06,25,02,46,0.00
2018,06,25,02,47,0.00
2018,06,25,02,48,0.00
2018,06,25,02,49,0.00
2018,06,25,02,50,0.00
2018,06,25,02,51,0.00
2018,06,25,02,52,0.00
2018,06,25,02,53,0.00
2018,06,25,02,54,0.00
2018,06,25,02,55,0.00
2018,06,25,02,56,0.00
2018,06,25,02,57,0.00
2018,06,25,02,58,0.00
2018,06,25,02,59,0.00
2018,06,25,03,00,0.00
2018,06,25,03,01,0.00
2018,06,25,03,02,0.00
2018,06,25,03,03,0.00
2018,06,25,03,04,0.00
2018,06,25,03,05,0.00
2018,06,25,03,06,0.00
2018,06,25,03,07,0.00
2018,06,25,03,08,0.00
2018,06,25,03,09,0.00
2018,06,25,03,10,0.00
2018,06,25,03,11,0.00
2018,06,25,03,12,0.00
2018,06,25,03,13,0.00
2018,06,25,03,14,0.00
2018,06,25,03,15,0.00
2018,06,25,03,16,0.00
2018,06,25,03,17,0.00
2018,06,25,03,18,0.00
2018,06,25,03,19,0.00
2018,06,25,03,20,0.00
2018,06,25,03,21,0.00
2018,06,25,03,22,0.00
2018,06,25,03,23,0.00
2018,06,25,03,24,0.00
2018,06,25,03,25,0.00
2018,06,25,03,26,0.00
2018,06,25,03,27,0.00
2018,06,25,03,28,0.00
2018,06,25,03,29,0.00
2018,06,25,03,30,0.00
2018,06,25,03,31,0.00
2018,06,25,03,32,0.00
2018,06,25,03,33,0.00
2018,06,25,03,34,0.00
2018,06,25,03,35,0.00
2018,06,25,03,36,0.00
2018,06,25,03,37,0.00
2018,06,25,03,38,0.00
2018,06,25,03,39,0.00
2018,06,25,03,40,0.00
2018,06,25,03,41,0.00
2018,06,25,03,42,0.00
2018,06,25,03,43,0.00
2018,06,25,03,44,0.00
2018,06,25,03,45,0.00
2018,06,25,03,46,0.00
2018,06,25,03,47,0.00
2018,06,25,03,48,0.00
2018,06,25,03,49,0.00
2018,06,25,03,50,0.00
2018,06,25,03,51,0.00
2018,06,25,03,52,0.00
2018,06,25,03,53,0.00
2018,06,25,03,54,0.00
2018,06,25,03,55,0.00
2018,06,25,03,56,0.00
2018,06,25,03,57,0.00
2018,06,25,03,58,0.00
2018,06,25,03,59,0.00
2018,06,25,04,00,0.00
2018,06,25,04,01,0.00
2018,06,25,04,02,0.00
2018,06,25,04,03,0.00
2018,06,25,04,04,0.00
2018,06,25,04,05,0.00
2018,06,25,04,06,0.00
2018,06,25,04,07,0.00
2018,06,25,04,08,0.00
2018,06,25,04,09,0.00
2018,06,25,04,10,0.00
2018,06,25,04,11,0.00
2018,06,25,04,12,0.00
2018,06,25,04,13,0.00
2018,06,25,04,14,0.00
2018,06,25,04,15,0.00
2018,06,25,04,16,0.00
2018,06,25,04,17,0.00
2018,06,25,04,18,0.00
2018,06,25,04,19,0.00
2018,06,25,04,20,0.00
2018,06,25,04,21,0.00
2018,06,25,04,22,0.00
2018,06,25,04,23,0.00
2018,06,25,04,24,0.00
2018,06,25,04,25,0.00
2018,06,25,04,26,0.00
2018,06,25,04,27,0.00
2018,06,25,04,28,0.00
2018,06,25,04,29,0.00
2018,06,25,04,30,0.00
2018,06,25,04,31,0.00
2018,06,25,04,32,0.00
2018,06,25,04,33,0.00
2018,06,25,04,34,0.00
2018,06,25,04,35,0.00
2018,06,25,04,36,0.00
2018,06,25,04,37,0.00
2018,06,25,04,38,0.00
2018,06,25,04,39,0.00
2018,06,25,04,40,0.00
2018,06,25,04,41,0.00
2018,06,25,04,42,0.00
2018,06,25,04,43,0.00
2018,06,25,04,44,0.00
2018,06,25,04,45,0.00
2018,06,25,04,46,0.00
2018,06,25,04,47,0.00
2018,06,25,04,48,0.00
2018,06,25,04,49,0.00
2018,06,25,04,50,0.00
2018,06,25,04,51,0.00
2018,06,25,04,52,0.00
2018,06,25,04,53,0.00
2018,06,25,04,54,0.00
2018,06,25,04,55,0.00
2018,06,25,04,56,0.00
2018,06,25,04,57,0.00
2018,06,25,04,58,0.00
2018,06,25,04,59,0.00
2018,06,25,05,00,0.00
2018,06,25,05,01,0.00
2018,06,25,05,02,0.00
2018,06,25,05,03,0.00
2018,06,25,05,04,0.00
2018,06,25,05,05,0.00
2018,06,25,05,06,0.00
2018,06,25,05,07,0.00
2018,06,25,05,08,0.00
2018,06,25,05,09,0.00
2018,06,25,05,10,0.00
2018,06,25,05,11,0.00
2018,06,25,05,12,0.00
2018,06,25,05,13,0.00
2018,06,25,05,14,0.00
2018,06,25,05,15,0.00
2018,06,25,05,16,0.00
2018,06,25,05,17,0.00
2018,06,25,05,18,0.00
2018,06,25,05,19,4.80
2018,06,25,05,20,5.00
2018,06,25,05,21,5.00
2018,06,25,05,22,5.00
2018,06,25,05,23,5.00
2018,06,25,05,24,5.00
2018,06,25,05,25,5.00
2018,06,25,05,26,5.10
2018,06,25,05,27,7.00
2018,06,25,05,28,7.00
2018,06,25,05,29,7.00
2018,06,25,05,30,7.00
2018,06,25,05,31,7.00
2018,06,25,05,32,7.00
2018,06,25,05,33,7.00
2018,06,25,05,34,7.00
2018,06,25,05,35,7.00
2018,06,25,05,36,7.90
2018,06,25,05,37,9.00
2018,06,25,05,38,9.00
2018,06,25,05,39,9.00
2018,06,25,05,40,9.00
2018,06,25,05,41,9.00
2018,06,25,05,42,9.70
2018,06,25,05,43,11.00
2018,06,25,05,44,11.00
2018,06,25,05,45,11.70
2018,06,25,05,46,12.00
2018,06,25,05,47,12.20
2018,06,25,05,48,14.00
2018,06,25,05,49,14.00
2018,06,25,05,50,14.90
2018,06,25,05,51,16.00
2018,06,25,05,52,17.40
2018,06,25,05,53,18.00
2018,06,25,05,54,18.10
2018,06,25,05,55,19.00
2018,06,25,05,56,19.00
2018,06,25,05,57,19.00
2018,06,25,05,58,19.00
2018,06,25,05,59,20.40
2018,06,25,06,00,21.00
2018,06,25,06,01,21.00
2018,06,25,06,02,21.00
2018,06,25,06,03,21.00
2018,06,25,06,04,21.90
2018,06,25,06,05,24.20
2018,06,25,06,06,25.70
2018,06,25,06,07,29.30
2018,06,25,06,08,30.00
2018,06,25,06,09,30.00
2018,06,25,06,10,31.00
2018,06,25,06,11,33.90
2018,06,25,06,12,35.00
2018,06,25,06,13,35.00
2018,06,25,06,14,35.00
2018,06,25,06,15,37.10
2018,06,25,06,16,39.20
2018,06,25,06,17,40.60
2018,06,25,06,18,42.00
2018,06,25,06,19,43.10
2018,06,25,06,20,44.00
2018,06,25,06,21,44.00
2018,06,25,06,22,44.00
2018,06,25,06,23,43.60
2018,06,25,06,24,41.40
2018,06,25,06,25,39.60
2018,06,25,06,26,37.80
2018,06,25,06,27,35.60
2018,06,25,06,28,33.30
2018,06,25,06,29,32.90
2018,06,25,06,30,32.00
2018,06,25,06,31,32.00
2018,06,25,06,32,31.10
2018,06,25,06,33,30.00
2018,06,25,06,34,30.00
2018,06,25,06,35,30.00
2018,06,25,06,36,30.00
2018,06,25,06,37,29.60
2018,06,25,06,38,28.00
2018,06,25,06,39,28.00
2018,06,25,06,40,26.80
2018,06,25,06,41,26.00
2018,06,25,06,42,25.20
2018,06,25,06,43,23.10
2018,06,25,06,44,23.40
2018,06,25,06,45,25.30
2018,06,25,06,46,26.90
2018,06,25,06,47,28.00
2018,06,25,06,48,28.00
2018,06,25,06,49,28.00
2018,06,25,06,50,28.20
2018,06,25,06,51,30.00
2018,06,25,06,52,30.60
2018,06,25,06,53,31.10
2018,06,25,06,54,30.00
2018,06,25,06,55,31.40
2018,06,25,06,56,34.60
2018,06,25,06,57,35.10
2018,06,25,06,58,36.20
2018,06,25,06,59,33.00
2018,06,25,07,00,36.20
2018,06,25,07,01,49.40
2018,06,25,07,02,60.30
2018,06,25,07,03,79.40
2018,06,25,07,04,102.60
2018,06,25,07,05,110.40
2018,06,25,07,06,90.50
2018,06,25,07,07,76.00
2018,06,25,07,08,87.10
2018,06,25,07,09,91.40
2018,06,25,07,10,92.50
2018,06,25,07,11,126.70
2018,06,25,07,12,195.50
2018,06,25,07,13,212.10
2018,06,25,07,14,223.80
2018,06,25,07,15,231.10
2018,06,25,07,16,227.20
2018,06,25,07,17,215.90
2018,06,25,07,18,229.50
2018,06,25,07,19,244.40
2018,06,25,07,20,246.70
2018,06,25,07,21,249.40
2018,06,25,07,22,253.30
2018,06,25,07,23,257.10
2018,06,25,07,24,261.30
2018,06,25,07,25,265.00
2018,06,25,07,26,267.80
2018,06,25,07,27,271.30
2018,06,25,07,28,273.90
2018,06,25,07,29,278.90
2018,06,25,07,30,285.10
2018,06,25,07,31,287.00
2018,06,25,07,32,287.30
2018,06,25,07,33,291.50
2018,06,25,07,34,297.00
2018,06,25,07,35,298.80
2018,06,25,07,36,303.90
2018,06,25,07,37,309.60
2018,06,25,07,38,314.40
2018,06,25,07,39,318.20
2018,06,25,07,40,322.20
2018,06,25,07,41,323.70
2018,06,25,07,42,325.90
2018,06,25,07,43,328.80
2018,06,25,07,44,335.70
2018,06,25,07,45,344.60
2018,06,25,07,46,353.20
2018,06,25,07,47,358.20
2018,06,25,07,48,363.60
2018,06,25,07,49,363.90
2018,06,25,07,50,351.80
2018,06,25,07,51,343.90
2018,06,25,07,52,343.00
2018,06,25,07,53,345.90
2018,06,25,07,54,345.80
2018,06,25,07,55,345.00
2018,06,25,07,56,347.20
2018,06,25,07,57,351.20
2018,06,25,07,58,352.70
2018,06,25,07,59,356.40
2018,06,25,08,00,359.00
2018,06,25,08,01,361.20
2018,06,25,08,02,366.00
2018,06,25,08,03,366.00
2018,06,25,08,04,368.90
2018,06,25,08,05,372.40
2018,06,25,08,06,375.60
2018,06,25,08,07,378.10
2018,06,25,08,08,381.00
2018,06,25,08,09,386.00
2018,06,25,08,10,389.80
2018,06,25,08,11,393.20
2018,06,25,08,12,395.40
2018,06,25,08,13,396.90
2018,06,25,08,14,401.40
2018,06,25,08,15,407.00
2018,06,25,08,16,410.40
2018,06,25,08,17,411.90
2018,06,25,08,18,415.90
2018,06,25,08,19,422.30
2018,06,25,08,20,429.80
2018,06,25,08,21,426.60
2018,06,25,08,22,445.00
2018,06,25,08,23,445.00
2018,06,25,08,24,400.00
2018,06,25,08,25,348.00
2018,06,25,08,26,425.50
2018,06,25,08,27,460.10
2018,06,25,08,28,471.80
2018,06,25,08,29,482.20
2018,06,25,08,30,474.70
2018,06,25,08,31,469.80
2018,06,25,08,32,493.60
2018,06,25,08,33,512.40
2018,06,25,08,34,525.30
2018,06,25,08,35,527.00
2018,06,25,08,36,526.00
2018,06,25,08,37,522.00
2018,06,25,08,38,522.00
2018,06,25,08,39,512.60
2018,06,25,08,40,503.90
2018,06,25,08,41,503.80
2018,06,25,08,42,504.30
2018,06,25,08,43,509.00
2018,06,25,08,44,515.10
2018,06,25,08,45,521.20
2018,06,25,08,46,529.10
2018,06,25,08,47,543.30
2018,06,25,08,48,548.00
2018,06,25,08,49,546.40
2018,06,25,08,50,533.00
2018,06,25,08,51,533.00
2018,06,25,08,52,534.30
2018,06,25,08,53,538.30
2018,06,25,08,54,540.70
2018,06,25,08,55,541.00
2018,06,25,08,56,540.50
2018,06,25,08,57,547.60
2018,06,25,08,58,550.00
2018,06,25,08,59,553.10
2018,06,25,09,00,569.30
2018,06,25,09,01,582.50
2018,06,25,09,02,532.70
2018,06,25,09,03,574.90
2018,06,25,09,04,574.20
2018,06,25,09,05,571.70
2018,06,25,09,06,577.20
2018,06,25,09,07,598.40
2018,06,25,09,08,618.70
2018,06,25,09,09,622.00
2018,06,25,09,10,608.80
2018,06,25,09,11,493.10
2018,06,25,09,12,520.10
2018,06,25,09,13,588.80
2018,06,25,09,14,601.00
2018,06,25,09,15,619.40
2018,06,25,09,16,624.00
2018,06,25,09,17,623.30
2018,06,25,09,18,616.60
2018,06,25,09,19,614.40
2018,06,25,09,20,615.70
2018,06,25,09,21,627.20
2018,06,25,09,22,641.60
2018,06,25,09,23,666.50
2018,06,25,09,24,671.00
2018,06,25,09,25,667.50
2018,06,25,09,26,646.80
2018,06,25,09,27,644.70
2018,06,25,09,28,659.00
2018,06,25,09,29,659.00
2018,06,25,09,30,653.20
2018,06,25,09,31,652.90
2018,06,25,09,32,661.00
2018,06,25,09,33,661.00
2018,06,25,09,34,661.00
2018,06,25,09,35,678.10
2018,06,25,09,36,702.70
2018,06,25,09,37,702.20
2018,06,25,09,38,700.80
2018,06,25,09,39,698.40
2018,06,25,09,40,700.00
2018,06,25,09,41,698.20
2018,06,25,09,42,694.90
2018,06,25,09,43,694.00
2018,06,25,09,44,694.00
2018,06,25,09,45,694.00
2018,06,25,09,46,695.90
2018,06,25,09,47,708.10
2018,06,25,09,48,726.20
2018,06,25,09,49,743.00
2018,06,25,09,50,746.20
2018,06,25,09,51,729.30
2018,06,25,09,52,728.90
2018,06,25,09,53,746.80
2018,06,25,09,54,770.20
2018,06,25,09,55,778.70
2018,06,25,09,56,759.40
2018,06,25,09,57,740.60
2018,06,25,09,58,748.80
2018,06,25,09,59,763.90
2018,06,25,10,00,755.20
2018,06,25,10,01,749.60
2018,06,25,10,02,741.80
2018,06,25,10,03,738.00
2018,06,25,10,04,742.30
2018,06,25,10,05,750.00
2018,06,25,10,06,760.10
2018,06,25,10,07,776.60
2018,06,25,10,08,796.70
2018,06,25,10,09,804.80
2018,06,25,10,10,798.50
2018,06,25,10,11,797.40
2018,06,25,10,12,811.80
2018,06,25,10,13,846.80
2018,06,25,10,14,860.00
2018,06,25,10,15,860.00
2018,06,25,10,16,858.20
2018,06,25,10,17,866.60
2018,06,25,10,18,891.10
2018,06,25,10,19,898.00
2018,06,25,10,20,484.30
2018,06,25,10,21,469.00
2018,06,25,10,22,469.00
2018,06,25,10,23,469.00
2018,06,25,10,24,469.00
2018,06,25,10,25,332.60
2018,06,25,10,26,278.00
2018,06,25,10,27,278.00
2018,06,25,10,28,304.50
2018,06,25,10,29,406.00
2018,06,25,10,30,353.10
2018,06,25,10,31,299.00
2018,06,25,10,32,314.10
2018,06,25,10,33,319.70
2018,06,25,10,34,316.80
2018,06,25,10,35,377.00
2018,06,25,10,36,418.00
2018,06,25,10,37,418.00
2018,06,25,10,38,391.60
2018,06,25,10,39,415.10
2018,06,25,10,40,432.00
2018,06,25,10,41,362.80
2018,06,25,10,42,284.10
2018,06,25,10,43,281.10
2018,06,25,10,44,337.40
2018,06,25,10,45,376.00
2018,06,25,10,46,376.00
2018,06,25,10,47,274.00
2018,06,25,10,48,258.20
2018,06,25,10,49,277.00
2018,06,25,10,50,318.40
2018,06,25,10,51,379.90
2018,06,25,10,52,386.30
2018,06,25,10,53,314.70
2018,06,25,10,54,269.10
2018,06,25,10,55,257.70
2018,06,25,10,56,231.20
2018,06,25,10,57,213.00
2018,06,25,10,58,213.00
2018,06,25,10,59,213.00
2018,06,25,11,00,213.00
2018,06,25,11,01,213.00
2018,06,25,11,02,257.30
2018,06,25,11,03,246.30
2018,06,25,11,04,227.20
2018,06,25,11,05,212.90
2018,06,25,11,06,207.00
2018,06,25,11,07,217.00
2018,06,25,11,08,259.10
2018,06,25,11,09,291.30
2018,06,25,11,10,297.70
2018,06,25,11,11,294.60
2018,06,25,11,12,271.20
2018,06,25,11,13,264.60
2018,06,25,11,14,272.30
2018,06,25,11,15,302.80
2018,06,25,11,16,325.40
2018,06,25,11,17,335.70
2018,06,25,11,18,312.30
2018,06,25,11,19,279.00
2018,06,25,11,20,254.60
2018,06,25,11,21,255.10
2018,06,25,11,22,261.30
2018,06,25,11,23,260.00
2018,06,25,11,24,281.40
2018,06,25,11,25,301.00
2018,06,25,11,26,301.00
2018,06,25,11,27,301.00
2018,06,25,11,28,402.40
2018,06,25,11,29,441.00
2018,06,25,11,30,441.00
2018,06,25,11,31,564.20
2018,06,25,11,32,1016.00
2018,06,25,11,33,743.50
2018,06,25,11,34,429.00
2018,06,25,11,35,825.10
2018,06,25,11,36,1016.30
2018,06,25,11,37,1052.00
2018,06,25,11,38,1053.00
2018,06,25,11,39,1047.90
2018,06,25,11,40,1037.00
2018,06,25,11,41,620.80
2018,06,25,11,42,272.00
2018,06,25,11,43,202.80
2018,06,25,11,44,182.30
2018,06,25,11,45,193.00
2018,06,25,11,46,510.60
2018,06,25,11,47,1114.00
2018,06,25,11,48,610.40
2018,06,25,11,49,281.80
2018,06,25,11,50,292.00
2018,06,25,11,51,347.70
2018,06,25,11,52,1074.30
2018,06,25,11,53,1055.70
2018,06,25,11,54,998.00
2018,06,25,11,55,998.00
2018,06,25,11,56,1008.70
2018,06,25,11,57,1000.60
2018,06,25,11,58,990.40
2018,06,25,11,59,993.30
2018,06,25,12,00,1002.60
2018,06,25,12,01,1002.20
2018,06,25,12,02,1002.90
2018,06,25,12,03,1017.90
2018,06,25,12,04,1032.10
2018,06,25,12,05,1026.60
2018,06,25,12,06,1021.00
2018,06,25,12,07,1021.00
2018,06,25,12,08,1020.50
2018,06,25,12,09,1022.90
2018,06,25,12,10,1031.50
2018,06,25,12,11,1054.60
2018,06,25,12,12,1058.00
2018,06,25,12,13,1053.00
2018,06,25,12,14,1029.80
2018,06,25,12,15,1016.50
2018,06,25,12,16,1012.10
2018,06,25,12,17,1033.00
2018,06,25,12,18,1084.20
2018,06,25,12,19,1108.20
2018,06,25,12,20,1094.20
2018,06,25,12,21,1041.30
2018,06,25,12,22,1021.00
2018,06,25,12,23,1001.30
2018,06,25,12,24,983.90
2018,06,25,12,25,969.40
2018,06,25,12,26,962.40
2018,06,25,12,27,966.90
2018,06,25,12,28,982.30
2018,06,25,12,29,1005.00
2018,06,25,12,30,1011.80
2018,06,25,12,31,984.60
2018,06,25,12,32,950.80
2018,06,25,12,33,949.80
2018,06,25,12,34,960.60
2018,06,25,12,35,967.20
2018,06,25,12,36,956.90
2018,06,25,12,37,948.10
2018,06,25,12,38,944.60
2018,06,25,12,39,944.00
2018,06,25,12,40,940.10
2018,06,25,12,41,941.20
2018,06,25,12,42,955.00
2018,06,25,12,43,991.00
2018,06,25,12,44,1008.30
2018,06,25,12,45,1009.30
2018,06,25,12,46,1011.00
2018,06,25,12,47,1011.00
2018,06,25,12,48,855.20
2018,06,25,12,49,261.80
2018,06,25,12,50,269.00
2018,06,25,12,51,760.20
2018,06,25,12,52,1078.00
2018,06,25,12,53,1078.00
2018,06,25,12,54,998.30
2018,06,25,12,55,980.00
2018,06,25,12,56,966.60
2018,06,25,12,57,962.00
2018,06,25,12,58,969.00
2018,06,25,12,59,947.60
2018,06,25,13,00,999.90
2018,06,25,13,01,1011.30
2018,06,25,13,02,1055.80
2018,06,25,13,03,1123.10
2018,06,25,13,04,1127.10
2018,06,25,13,05,1125.00
2018,06,25,13,06,555.80
2018,06,25,13,07,396.40
2018,06,25,13,08,406.00
2018,06,25,13,09,406.00
2018,06,25,13,10,406.00
2018,06,25,13,11,406.00
2018,06,25,13,12,406.00
2018,06,25,13,13,406.00
2018,06,25,13,14,918.30
2018,06,25,13,15,1052.80
2018,06,25,13,16,1032.80
2018,06,25,13,17,1065.00
2018,06,25,13,18,1060.00
2018,06,25,13,19,969.40
2018,06,25,13,20,928.00
2018,06,25,13,21,890.30
2018,06,25,13,22,884.00
2018,06,25,13,23,884.00
2018,06,25,13,24,884.00
2018,06,25,13,25,884.00
2018,06,25,13,26,852.90
2018,06,25,13,27,831.00
2018,06,25,13,28,831.00
2018,06,25,13,29,831.00
2018,06,25,13,30,849.20
2018,06,25,13,31,930.70
2018,06,25,13,32,953.00
2018,06,25,13,33,1057.90
2018,06,25,13,34,1125.50
2018,06,25,13,35,1147.00
2018,06,25,13,36,1151.00
2018,06,25,13,37,980.90
2018,06,25,13,38,329.00
2018,06,25,13,39,329.00
2018,06,25,13,40,553.50
2018,06,25,13,41,712.00
2018,06,25,13,42,712.00
2018,06,25,13,43,712.00
2018,06,25,13,44,712.00
2018,06,25,13,45,712.00
2018,06,25,13,46,712.00
2018,06,25,13,47,875.30
2018,06,25,13,48,1004.90
2018,06,25,13,49,1014.00
2018,06,25,13,50,1014.00
2018,06,25,13,51,1014.00
2018,06,25,13,52,1056.90
2018,06,25,13,53,1178.80
2018,06,25,13,54,1234.00
2018,06,25,13,55,1234.00
2018,06,25,13,56,1234.00
2018,06,25,13,57,1234.00
2018,06,25,13,58,1223.10
2018,06,25,13,59,1164.40
2018,06,25,14,00,1110.90
2018,06,25,14,01,1104.10
2018,06,25,14,02,1155.40
2018,06,25,14,03,1172.00
2018,06,25,14,04,1172.00
2018,06,25,14,05,1172.00
2018,06,25,14,06,1172.00
2018,06,25,14,07,809.90
2018,06,25,14,08,392.00
2018,06,25,14,09,392.00
2018,06,25,14,10,392.00
2018,06,25,14,11,402.60
2018,06,25,14,12,403.00
2018,06,25,14,13,403.00
2018,06,25,14,14,403.00
2018,06,25,14,15,403.00
2018,06,25,14,16,403.00
2018,06,25,14,17,997.20
2018,06,25,14,18,1121.00
2018,06,25,14,19,1095.50
2018,06,25,14,20,986.80
2018,06,25,14,21,958.00
2018,06,25,14,22,1004.30
2018,06,25,14,23,1013.10
2018,06,25,14,24,986.00
2018,06,25,14,25,982.00
2018,06,25,14,26,1009.20
2018,06,25,14,27,1022.80
2018,06,25,14,28,1035.00
2018,06,25,14,29,1035.00
2018,06,25,14,30,545.50
2018,06,25,14,31,385.70
2018,06,25,14,32,418.10
2018,06,25,14,33,434.00
2018,06,25,14,34,434.00
2018,06,25,14,35,434.00
2018,06,25,14,36,434.00
2018,06,25,14,37,917.60
2018,06,25,14,38,1111.00
2018,06,25,14,39,1096.30
2018,06,25,14,40,969.00
2018,06,25,14,41,969.00
2018,06,25,14,42,969.00
2018,06,25,14,43,969.00
2018,06,25,14,44,969.00
2018,06,25,14,45,633.00
2018,06,25,14,46,536.90
2018,06,25,14,47,582.10
2018,06,25,14,48,751.00
2018,06,25,14,49,649.80
2018,06,25,14,50,533.00
2018,06,25,14,51,623.00
2018,06,25,14,52,659.00
2018,06,25,14,53,1050.80
2018,06,25,14,54,1040.60
2018,06,25,14,55,1012.70
2018,06,25,14,56,996.00
2018,06,25,14,57,995.00
2018,06,25,14,58,470.70
2018,06,25,14,59,290.70
2018,06,25,15,00,293.00
2018,06,25,15,01,342.70
2018,06,25,15,02,272.00
2018,06,25,15,03,260.80
2018,06,25,15,04,272.00
2018,06,25,15,05,272.00
2018,06,25,15,06,272.00
2018,06,25,15,07,269.50
2018,06,25,15,08,248.00
2018,06,25,15,09,248.00
2018,06,25,15,10,316.70
2018,06,25,15,11,396.00
2018,06,25,15,12,750.80
2018,06,25,15,13,868.00
2018,06,25,15,14,856.10
2018,06,25,15,15,855.90
2018,06,25,15,16,869.10
2018,06,25,15,17,882.00
2018,06,25,15,18,660.40
2018,06,25,15,19,504.00
2018,06,25,15,20,854.90
2018,06,25,15,21,926.40
2018,06,25,15,22,936.60
2018,06,25,15,23,957.50
2018,06,25,15,24,955.30
2018,06,25,15,25,962.00
2018,06,25,15,26,962.00
2018,06,25,15,27,962.00
2018,06,25,15,28,911.90
2018,06,25,15,29,478.00
2018,06,25,15,30,523.40
2018,06,25,15,31,605.00
2018,06,25,15,32,547.00
2018,06,25,15,33,506.00
2018,06,25,15,34,506.00
2018,06,25,15,35,217.70
2018,06,25,15,36,207.00
2018,06,25,15,37,207.00
2018,06,25,15,38,581.60
2018,06,25,15,39,983.00
2018,06,25,15,40,983.00
2018,06,25,15,41,983.00
2018,06,25,15,42,761.90
2018,06,25,15,43,754.00
2018,06,25,15,44,606.10
2018,06,25,15,45,294.00
2018,06,25,15,46,349.10
2018,06,25,15,47,388.00
2018,06,25,15,48,388.00
2018,06,25,15,49,388.00
2018,06,25,15,50,495.80
2018,06,25,15,51,883.80
2018,06,25,15,52,876.50
2018,06,25,15,53,884.00
2018,06,25,15,54,884.00
2018,06,25,15,55,916.30
2018,06,25,15,56,923.00
2018,06,25,15,57,923.00
2018,06,25,15,58,923.00
2018,06,25,15,59,571.60
2018,06,25,16,00,195.00
2018,06,25,16,01,195.00
2018,06,25,16,02,195.00
2018,06,25,16,03,911.40
2018,06,25,16,04,937.00
2018,06,25,16,05,935.60
2018,06,25,16,06,933.00
2018,06,25,16,07,933.00
2018,06,25,16,08,922.90
2018,06,25,16,09,908.70
2018,06,25,16,10,884.00
2018,06,25,16,11,823.00
2018,06,25,16,12,769.60
2018,06,25,16,13,657.00
2018,06,25,16,14,814.10
2018,06,25,16,15,925.00
2018,06,25,16,16,925.00
2018,06,25,16,17,918.10
2018,06,25,16,18,860.90
2018,06,25,16,19,856.10
2018,06,25,16,20,824.30
2018,06,25,16,21,807.80
2018,06,25,16,22,800.60
2018,06,25,16,23,807.40
2018,06,25,16,24,820.10
2018,06,25,16,25,839.60
2018,06,25,16,26,833.50
2018,06,25,16,27,824.00
2018,06,25,16,28,824.00
2018,06,25,16,29,824.00
2018,06,25,16,30,824.00
2018,06,25,16,31,824.00
2018,06,25,16,32,824.00
2018,06,25,16,33,819.20
2018,06,25,16,34,816.60
2018,06,25,16,35,826.00
2018,06,25,16,36,346.70
2018,06,25,16,37,189.80
2018,06,25,16,38,226.20
2018,06,25,16,39,274.30
2018,06,25,16,40,254.90
2018,06,25,16,41,244.00
2018,06,25,16,42,229.60
2018,06,25,16,43,225.00
2018,06,25,16,44,225.00
2018,06,25,16,45,225.00
2018,06,25,16,46,359.80
2018,06,25,16,47,843.70
2018,06,25,16,48,816.80
2018,06,25,16,49,807.80
2018,06,25,16,50,800.50
2018,06,25,16,51,776.40
2018,06,25,16,52,763.70
2018,06,25,16,53,789.90
2018,06,25,16,54,803.00
2018,06,25,16,55,806.80
2018,06,25,16,56,809.60
2018,06,25,16,57,842.90
2018,06,25,16,58,856.00
2018,06,25,16,59,856.00
2018,06,25,17,00,841.10
2018,06,25,17,01,781.60
2018,06,25,17,02,780.20
2018,06,25,17,03,790.40
2018,06,25,17,04,795.00